Location: Sunny Point
(33.0946°N, 85.0574°W)
Time: 07:07:57
(UTC+00:00)

Envisat - Pass Details

Date: 26 May 2024
Orbit: 762 x 764 km, 98.3° (Epoch: 20 June)

Event Time Altitude Azimuth Distance (km) Brightness Sun altitude
Rises 08:03:25 0° 27° (NNE) 3,229 7.5 -25.5°
Reaches altitude 10° 08:06:05 10° 40° (NE) 2,299 6.5 -25.1°
Maximum altitude 08:10:18 26° 96° (E) 1,463 4.7 -24.6°
Enters shadow 08:13:17 16° 143° (SE) 1,929 4.9 -24.2°
